Temp
20 19 18 18 18 17 17 17 17 17 17 16 16 16 16 16 15 15 15 15 15 14 14 14 13 13 13 12 12 12 12 12 12 12 12 12 12 12 12 12 11 11 11 11 11 11 11 11 11 11 11 11 11 11 11 11 12 12 12 12 12 11 11 11 11 10 11 11 11 12 12 12 12 12 12 13 13 13 12 12 12 11 11 11 11
20 19 19 18 18 17 17 17 17 17 17 16 16 16 15 15 15 14 15 15 15 14 14 14 13 13 13 13 12 12 12 12 12 12 12 12 12 12 12 12 11 11 11 11 11 11 11 11 10 10 10 11 11 11 11 11 11 12 11 11 11 11 11 11 11 10 10 11 11 11 12 12 12 12 12 13 12 12 12 12 11 11 11 11 10
20 19 18 18 18 17 17 17 16 16 16 16 16 15 15 15 15 14 14 15 15 14 14 13 13 13 13 13 12 12 12 12 12 12 12 11 12 12 12 12 11 11 11 11 11 11 11 10 10 10 10 11 11 11 10 10 11 11 11 11 11 11 11 11 10 10 10 11 11 11 11 12 12 12 12 12 12 12 11 11 11 11 11 10 10
19 18 18 18 18 17 17 16 16 16 15 15 15 15 15 15 15 14 14 14 14 14 14 14 13 13 13 13 13 12 12 12 12 12 12 11 12 12 12 11 11 11 11 11 11 11 11 10 10 10 11 11 11 10 10 10 10 11 11 11 11 11 10 10 10 10 10 10 11 11 11 12 12 12 12 12 12 11 11 10 10 10 10 10 9
19 18 18 18 17 17 17 16 16 15 15 15 15 15 15 15 14 14 14 14 14 14 14 14 14 13 13 13 13 12 12 12 12 12 12 12 12 12 11 11 11 11 11 11 11 11 11 11 10 10 10 10 10 10 9 10 10 10 10 10 10 10 10 10 10 10 10 10 11 11 11 12 12 12 11 11 11 10 10 10 10 10 9 9 9
18 18 18 17 17 17 16 16 15 15 15 15 15 15 15 14 14 14 14 14 14 14 14 14 14 13 13 13 13 13 12 12 12 12 12 12 12 11 11 11 11 11 11 11 11 11 11 10 10 10 10 10 10 9 9 9 9 10 10 9 9 9 9 9 10 10 10 10 11 11 11 11 11 11 11 11 10 10 10 9 9 9 9 9 9
18 17 17 17 17 16 16 15 15 14 14 15 14 14 14 14 14 14 14 14 14 14 14 14 14 14 14 13 13 13 12 12 12 12 12 12 12 11 11 11 11 11 11 11 11 10 10 10 10 10 9 9 9 9 9 9 9 9 9 9 9 8 9 9 9 9 10 10 10 10 10 10 10 10 10 10 10 9 9 9 8 8 8 8 8
18 17 17 17 16 16 15 15 14 14 14 14 14 14 14 14 14 14 14 14 14 14 14 14 14 14 14 13 13 13 12 12 12 12 12 11 11 11 11 11 11 11 11 11 10 10 10 10 10 9 9 9 9 9 9 9 8 8 8 8 8 8 8 8 9 9 9 9 9 9 10 10 10 10 10 9 9 9 9 8 8 8 8 8 8
17 17 16 16 16 15 15 14 14 14 14 14 14 14 14 14 14 14 14 14 14 14 14 14 14 14 14 13 13 12 12 11 11 11 11 11 11 11 11 11 11 11 11 11 10 10 10 10 9 9 9 9 9 9 9 9 8 8 8 8 8 8 8 8 8 8 8 8 8 9 9 9 9 9 9 9 9 8 8 8 7 7 8 8 8
17 16 16 16 15 15 14 14 14 14 14 14 14 14 14 14 14 14 14 14 14 14 14 14 14 14 13 13 12 12 11 11 11 11 11 11 11 11 11 11 11 11 11 11 10 10 10 10 9 9 9 9 9 9 8 8 8 8 8 8 8 8 8 8 8 8 8 8 8 8 8 8 9 9 8 8 8 8 8 7 7 7 8 8 8
17 16 16 16 15 15 14 14 14 14 14 14 14 14 14 14 14 14 14 14 14 14 13 13 13 13 13 12 11 11 11 11 11 11 11 11 11 11 11 11 11 11 11 11 10 10 10 10 10 9 9 9 9 9 8 8 9 8 8 9 9 8 8 8 8 8 8 8 8 8 8 8 8 8 8 8 8 8 7 7 7 7 7 7 7
17 16 16 16 15 14 14 14 14 14 14 14 14 14 14 14 14 14 13 13 13 13 13 12 13 13 12 11 11 10 10 11 11 11 11 11 11 11 11 11 11 11 11 11 11 11 10 10 10 9 9 9 9 9 9 9 9 8 9 9 9 9 8 8 8 8 8 8 7 7 7 8 8 8 8 8 8 7 7 7 8 8 8 7 7
16 16 16 15 15 14 14 14 14 14 14 14 14 14 14 14 14 13 13 12 12 12 12 11 11 11 11 10 10 10 10 10 10 11 11 11 11 11 11 11 11 11 11 11 11 11 11 10 10 9 9 9 9 9 9 9 8 8 8 9 9 10 9 9 9 8 8 7 7 7 7 8 8 8 8 8 8 8 7 8 8 8 8 7 7
16 16 16 15 15 14 14 14 14 13 13 13 14 14 14 14 13 12 12 11 11 11 11 10 10 10 11 10 10 10 10 10 10 11 11 11 11 11 11 11 11 11 11 11 11 11 11 10 10 10 10 9 9 9 9 9 9 9 9 9 10 10 10 10 9 9 8 8 7 7 7 8 8 8 8 8 8 8 8 8 8 8 8 8 8
16 15 15 15 15 14 14 14 13 13 13 13 14 14 14 13 12 12 11 11 11 11 10 10 10 10 11 10 10 10 10 10 10 10 11 11 11 11 11 11 11 11 11 11 11 11 10 10 10 10 10 10 9 9 9 9 9 9 9 9 10 10 10 10 10 9 9 8 8 8 8 8 8 9 9 9 9 9 9 8 8 8 8 8 9
16 15 15 14 14 14 14 14 13 13 13 13 13 13 13 12 11 11 10 10 10 10 10 10 10 10 10 10 10 11 11 10 10 10 10 10 10 10 10 10 11 11 11 11 10 10 10 10 10 10 10 10 9 9 9 9 9 9 9 9 9 10 10 10 10 9 9 9 9 9 9 9 9 9 10 10 10 10 9 9 9 9 8 8 8
16 15 15 15 14 14 14 13 13 13 13 13 13 13 12 12 11 10 10 10 10 10 10 10 10 10 10 10 11 11 11 10 10 10 10 10 10 10 10 10 11 11 10 10 10 10 10 10 10 10 10 10 9 9 9 9 9 8 8 9 9 9 10 10 9 9 9 9 9 9 9 9 10 10 10 10 10 10 9 9 9 9 8 8 8
16 16 16 15 15 15 15 14 14 14 13 12 12 12 12 11 11 10 10 10 10 9 10 10 10 10 10 10 11 11 10 10 10 10 10 10 10 9 9 10 10 10 10 10 10 10 10 10 10 10 10 9 9 8 8 9 8 8 8 8 8 9 10 9 9 10 9 9 9 9 9 10 10 10 10 10 10 10 9 9 9 9 8 8 8
17 16 16 16 16 16 16 15 15 14 13 12 12 12 11 11 10 10 10 10 10 10 10 10 10 10 10 11 11 11 10 10 9 9 9 9 9 9 9 10 10 10 10 10 10 10 10 10 10 9 9 9 8 8 8 8 8 8 8 8 8 9 9 9 9 9 9 9 9 9 10 10 11 10 10 10 10 10 10 9 9 9 8 8 8
17 17 17 17 16 16 15 14 14 13 12 12 12 12 11 10 10 10 10 10 10 10 10 10 10 11 11 11 11 10 10 9 9 9 9 9 9 9 9 10 11 11 11 11 10 10 10 10 10 10 9 9 8 8 8 8 8 8 8 8 8 8 9 9 9 9 9 9 9 10 10 11 11 10 10 10 10 10 10 10 9 9 9 8 8
17 17 17 16 16 16 14 13 13 13 12 12 12 11 11 10 10 10 10 10 11 11 11 11 11 11 11 11 10 9 9 9 9 9 9 9 9 9 9 9 10 10 11 11 11 11 10 10 10 10 10 9 9 9 8 8 8 8 9 8 8 9 9 9 9 9 9 9 10 10 11 11 10 10 10 10 10 10 10 10 9 9 9 9 9
17 17 17 16 15 14 13 13 13 13 12 12 11 11 11 10 11 11 11 11 11 11 11 10 10 10 10 10 10 9 9 9 9 8 8 8 9 9 9 9 9 9 10 11 11 11 11 10 10 10 10 9 9 9 8 8 8 9 9 9 9 9 9 9 9 9 9 9 10 11 11 10 10 10 10 10 10 10 10 10 9 9 9 9 9
17 17 16 15 14 14 13 13 13 12 12 12 11 11 11 11 11 11 11 11 11 10 10 10 9 9 9 9 9 9 8 9 9 8 8 8 8 9 9 9 9 9 10 10 11 11 11 11 11 10 10 9 9 9 9 8 9 9 9 9 9 9 9 9 9 9 9 10 10 11 10 10 10 10 10 10 10 10 10 10 10 10 9 9 9
16 16 15 14 13 13 13 13 12 12 11 11 11 10 10 10 10 10 11 10 9 9 9 9 8 8 9 9 9 8 8 8 8 8 8 8 8 8 9 9 9 9 9 9 9 10 11 11 11 10 9 9 9 9 9 9 9 9 9 9 9 9 9 9 9 9 10 10 11 11 10 10 10 10 10 10 10 10 10 10 10 10 10 10 9
15 15 14 13 12 12 12 12 12 11 11 11 10 10 10 10 10 10 10 9 9 8 8 8 8 9 9 9 9 8 8 7 7 7 8 8 8 8 9 9 9 9 9 8 8 9 10 10 10 10 9 9 9 9 9 9 9 10 9 9 9 9 9 9 9 10 10 11 11 11 10 10 10 10 10 10 10 10 10 10 10 10 10 10 9
15 14 14 13 12 11 11 11 11 11 10 10 10 10 10 10 10 9 9 9 9 8 8 8 9 10 10 9 9 9 8 7 7 8 7 7 8 8 8 9 9 9 9 8 8 9 9 9 9 9 9 9 9 9 9 10 10 10 10 9 9 9 9 9 9 10 11 11 11 11 10 10 10 10 10 10 10 10 10 10 10 10 10 9 9
15 15 14 13 11 11 10 10 10 10 10 9 9 9 10 10 10 9 9 9 9 9 9 10 10 10 10 10 10 9 9 8 7 8 8 7 7 8 8 9 9 8 9 9 8 8 8 8 8 8 9 9 9 9 9 10 10 10 10 10 10 10 10 10 10 10 11 11 11 10 10 10 10 10 10 10 10 10 10 10 10 9 9 9 9
14 14 13 12 11 10 10 10 9 9 9 9 9 9 9 9 9 9 10 9 10 10 10 10 10 10 10 10 10 10 9 8 8 8 8 8 8 8 8 8 8 8 8 8 8 8 8 8 8 9 9 9 9 9 9 10 10 10 10 10 10 10 11 11 11 11 11 11 11 10 10 10 10 10 10 10 10 10 10 10 10 9 9 9 9
14 13 12 11 10 10 9 9 9 9 9 9 9 9 9 9 9 10 10 10 10 10 10 10 10 11 11 11 11 10 9 9 8 9 9 9 9 8 9 9 8 8 8 8 8 8 9 8 8 9 9 9 9 9 9 10 10 11 11 11 11 11 11 11 11 11 11 11 11 11 10 10 10 10 10 10 10 10 10 10 10 10 9 9 9
14 13 12 11 10 9 9 9 9 9 9 9 9 9 10 10 10 10 10 10 10 10 10 11 11 11 11 11 11 10 10 10 9 9 9 9 9 9 9 9 8 8 8 8 8 8 9 9 9 9 9 9 9 9 10 10 11 12 12 12 12 12 12 12 12 12 11 11 11 11 11 11 10 10 10 10 10 10 10 10 10 10 10 9 9
14 13 13 11 10 9 9 9 9 9 9 9 10 10 10 10 10 11 11 11 11 10 10 11 11 11 11 11 11 11 10 10 10 10 9 9 9 8 8 8 8 8 8 8 8 8 9 9 9 9 9 9 10 10 11 11 12 12 12 12 12 12 12 12 12 11 11 11 11 11 11 11 11 10 10 10 10 10 10 10 10 10 10 9 9
14 13 12 11 10 10 9 9 9 9 10 10 10 10 10 10 10 10 11 11 11 10 10 11 11 11 11 11 11 11 11 11 11 10 10 9 9 8 8 8 8 8 8 8 8 8 8 8 8 9 9 9 10 10 11 11 12 12 12 12 12 12 12 12 12 12 11 11 11 11 11 11 11 10 10 10 10 10 10 10 10 10 10 9 9
14 13 12 11 10 10 10 10 10 10 10 11 11 11 10 10 10 10 10 10 10 10 10 11 11 11 11 11 11 11 11 11 11 10 10 9 9 8 8 8 8 8 8 8 8 8 8 8 8 9 9 9 10 10 11 11 12 12 12 12 12 12 12 12 12 12 12 12 11 11 11 11 10 10 10 10 10 10 10 10 10 10 10 9 9
14 13 12 11 10 10 10 10 10 10 10 11 11 11 11 10 10 9 9 9 9 9 10 10 10 11 11 11 11 11 11 11 11 10 10 9 9 8 8 8 8 8 8 8 8 8 8 8 8 9 9 10 10 11 11 12 12 12 12 12 12 12 12 12 12 12 12 12 12 11 11 11 10 10 10 10 10 10 11 10 10 10 10 9 9
14 13 12 11 10 10 10 10 10 10 10 11 11 11 10 10 10 9 9 9 9 9 10 10 10 10 11 10 10 10 11 11 11 10 10 9 9 9 8 8 8 8 8 8 8 8 8 8 8 9 9 10 10 11 11 12 12 13 12 12 12 12 12 12 12 12 12 12 11 11 11 11 10 10 10 10 11 11 11 11 10 10 10 10 9
13 12 11 10 10 10 10 10 10 10 11 11 11 10 10 10 10 10 9 9 9 9 9 10 10 10 10 10 10 10 10 10 10 10 9 9 9 8 8 8 8 8 8 7 7 7 7 8 8 8 9 10 10 10 11 12 13 13 12 12 12 12 12 12 12 12 12 11 11 11 11 11 10 10 10 11 11 11 11 11 10 10 10 10 10
12 11 10 10 10 10 10 10 10 10 11 11 10 10 10 10 10 10 10 10 9 9 9 9 9 9 9 9 9 9 9 9 9 9 9 8 8 8 8 8 8 7 7 7 7 7 7 8 8 8 9 9 10 11 11 12 13 13 13 13 12 12 12 12 12 12 12 11 11 11 11 11 10 10 11 11 11 11 11 11 10 10 10 10 10
11 11 11 11 11 11 10 10 11 11 11 11 11 11 11 11 11 11 10 10 9 10 10 9 9 9 8 8 9 9 9 8 8 8 8 8 8 8 8 8 8 8 8 8 8 8 8 8 8 9 9 9 10 10 11 12 12 13 13 12 12 12 12 12 12 12 12 11 11 11 11 11 11 11 11 11 11 11 11 11 10 10 10 10 10
11 11 11 10 11 11 11 11 11 11 11 11 11 11 11 11 11 10 10 10 10 10 10 10 9 9 8 8 8 8 8 8 7 7 7 7 7 8 8 7 8 8 8 8 9 9 9 9 9 9 9 10 10 11 11 12 12 12 13 13 12 12 12 12 12 12 11 11 11 11 11 11 11 11 11 11 11 11 11 11 10 10 10 10 10
11 10 10 10 10 10 10 10 10 10 10 10 10 10 10 11 11 10 11 11 11 10 10 11 10 10 9 8 8 8 8 7 7 7 7 7 7 7 7 7 7 8 8 9 9 10 10 10 10 10 10 11 11 11 12 12 12 12 12 12 12 12 12 12 12 12 11 11 11 11 11 11 11 11 11 11 11 11 11 10 10 11 10 10 10
10 10 10 10 10 10 10 10 10 10 10 10 10 10 10 11 11 11 11 12 12 11 11 11 11 11 10 9 8 8 8 7 7 7 7 7 7 7 7 7 8 8 8 9 9 10 10 10 11 11 11 11 12 12 12 12 12 12 12 12 12 12 12 12 12 11 11 11 11 11 11 11 11 11 11 11 11 11 11 11 11 11 11 11 10
10 10 9 10 10 10 10 10 10 10 10 10 10 11 11 11 11 11 12 12 13 12 12 12 12 12 12 10 9 8 8 8 7 7 7 7 7 7 7 7 8 8 8 9 9 9 10 11 11 11 12 12 12 12 12 12 12 12 12 12 12 12 12 12 12 11 11 11 11 11 11 11 11 11 11 11 11 11 11 11 11 11 11 11 10
11 10 9 9 10 10 10 10 10 10 10 10 11 11 12 11 11 12 12 12 12 13 13 13 13 12 12 11 10 9 9 8 8 8 8 7 7 7 7 7 8 8 8 9 9 9 10 11 11 11 11 11 12 12 12 12 12 12 12 12 12 12 12 12 11 11 11 11 11 11 11 11 11 11 11 11 11 11 11 11 11 11 11 11 10
11 10 9 9 10 10 10 10 10 10 10 10 10 11 11 11 12 12 12 12 13 13 13 13 12 12 11 11 10 9 9 8 8 8 8 8 8 8 7 8 8 8 9 9 9 9 10 10 11 11 11 11 11 12 12 12 12 12 12 12 12 12 12 11 11 11 11 11 11 11 11 11 11 11 11 11 11 11 11 11 11 10 10 10 10
11 10 10 10 10 10 10 10 10 10 10 10 10 10 11 11 12 12 12 13 13 13 13 13 12 12 11 10 9 9 9 9 9 9 9 9 8 8 8 8 8 9 9 9 9 10 10 11 11 11 11 11 11 11 11 11 12 12 12 12 12 12 12 12 11 11 11 11 11 11 11 11 11 11 11 11 11 11 10 10 10 10 10 10 10
12 11 10 10 10 10 11 11 10 10 11 10 10 11 11 11 12 13 13 13 13 13 13 13 12 11 11 10 9 9 9 9 9 9 9 9 9 9 9 9 9 9 10 10 10 10 10 11 11 11 11 11 11 11 11 11 11 11 11 11 12 12 12 12 11 12 11 11 11 11 11 11 11 11 11 11 10 10 10 10 10 10 10 10 10
12 11 11 11 11 11 11 11 11 11 11 11 11 11 12 12 12 13 13 13 13 13 13 13 12 12 11 10 10 9 9 9 10 10 10 10 10 10 10 10 10 10 10 10 10 11 11 11 11 11 11 11 11 11 11 11 11 11 11 11 11 11 12 12 12 12 12 12 11 11 11 11 11 11 11 10 10 10 10 10 10 10 10 9 9
13 12 11 11 11 11 11 11 11 11 11 11 11 12 12 12 13 13 13 13 13 13 13 12 12 12 12 11 10 9 9 9 10 10 10 10 10 10 10 10 11 11 11 11 11 11 11 11 11 11 11 11 11 11 11 11 11 11 11 11 11 11 11 12 12 12 12 12 11 11 11 11 11 11 10 10 10 10 9 9 9 9 9 9 9
13 13 12 12 12 12 12 12 12 12 12 12 12 12 13 13 13 13 13 13 13 13 13 12 12 12 12 12 11 10 10 10 10 10 10 11 11 11 11 11 11 11 11 11 11 11 11 11 11 11 11 11 11 11 11 11 11 11 11 11 11 11 11 11 11 12 11 11 11 11 11 11 11 10 10 10 10 9 9 9 9 9 9 8 8
14 14 14 13 13 13 13 13 13 12 13 13 13 13 13 13 13 13 12 12 12 12 12 12 12 12 12 12 12 11 10 10 10 10 10 10 10 10 10 10 10 11 11 11 11 11 11 11 11 11 11 11 11 11 11 11 11 11 11 11 11 11 11 11 11 11 11 11 11 11 11 11 10 10 10 9 9 9 9 8 8 8 8 8 8
13 13 13 13 13 13 13 12 12 12 12 12 13 12 12 12 12 12 12 12 11 11 12 12 12 12 12 12 12 12 11 10 10 10 10 10 10 10 10 10 10 11 10 10 10 10 10 10 10 10 11 11 11 11 11 11 11 11 11 11 11 11 11 11 11 11 11 11 11 11 10 10 10 10 10 9 9 8 8 8 8 8 8 8 8
Height
767 770 774 777 779 782 785 788 791 794 796 799 802 804 807 809 811 813 816 818 820 822 825 827 828 830 831 832 833 834 834 835 836 837 838 839 840 841 842 843 844 845 847 848 849 849 849 849 850 850 850 851 852 852 852 852 852 852 853 853 853 853 852 852 851 848 845 844 843 841 839 838 835 833 832 829 828 827 824 822 819 816 812 810 808
765 768 772 775 778 780 783 786 789 792 795 798 800 802 806 808 810 813 816 818 820 822 825 826 828 830 831 832 832 834 835 835 837 837 838 839 840 842 843 844 845 846 847 848 849 849 849 849 850 850 851 852 852 852 852 852 852 852 852 853 853 853 852 851 850 848 845 843 842 840 839 837 835 833 831 829 827 826 823 821 818 815 812 809 807
762 766 769 773 776 779 782 784 787 790 793 796 798 801 805 808 810 812 815 818 820 822 824 826 828 829 830 831 832 833 835 836 837 838 839 840 841 842 843 844 846 847 848 848 848 849 849 850 850 851 852 852 852 852 852 851 851 852 852 853 853 852 852 851 850 849 846 843 841 840 838 837 834 832 831 830 827 825 823 820 817 814 811 807 805
760 764 767 771 774 778 780 783 786 789 792 795 797 800 804 807 810 812 815 817 819 822 823 825 827 828 829 831 832 833 834 836 837 838 839 841 841 842 843 845 846 847 848 848 849 849 849 850 851 851 852 852 852 852 851 851 851 851 852 852 852 852 851 851 850 849 847 844 842 840 838 836 834 832 831 829 827 825 823 820 816 813 809 806 804
758 762 765 769 773 776 779 782 785 788 791 794 797 800 804 806 809 812 815 817 819 821 822 824 826 827 829 830 831 833 834 835 837 838 839 840 841 842 843 845 847 848 848 849 849 849 850 850 851 851 852 852 852 852 851 851 851 852 852 852 852 851 851 850 850 849 847 845 842 840 838 836 834 832 831 828 826 824 822 819 816 812 808 804 802
757 760 763 767 771 775 778 781 784 787 791 793 796 799 803 805 809 811 814 815 817 819 821 823 825 826 828 829 830 832 834 835 837 838 839 840 841 842 843 845 846 847 848 849 849 849 850 851 851 851 852 852 852 852 851 851 852 852 852 852 851 851 850 850 849 848 847 845 842 839 837 836 834 832 830 829 826 822 819 817 815 812 807 802 800
755 759 762 765 769 773 777 780 784 787 789 792 795 799 802 805 808 810 812 814 816 818 820 822 823 825 826 828 829 831 833 835 837 838 840 841 842 843 844 845 846 847 848 849 849 850 850 851 851 851 852 852 851 851 851 851 852 852 852 851 851 850 849 849 848 847 846 844 842 840 837 836 834 832 830 828 826 822 819 815 812 809 806 802 797
753 757 760 763 767 771 776 780 783 785 788 791 795 798 800 804 807 809 811 813 815 817 819 820 822 823 825 826 828 830 832 834 836 838 839 841 842 843 844 845 846 847 848 849 849 850 850 851 851 851 851 851 851 851 851 851 851 852 851 851 850 850 849 849 848 847 846 844 842 840 837 835 833 831 829 827 824 822 820 817 812 808 805 801 797
752 755 758 762 766 771 775 779 781 784 787 790 793 796 799 803 806 808 810 812 814 816 817 819 820 822 823 825 826 828 830 831 833 836 837 838 840 842 844 845 846 847 848 848 849 850 850 850 850 850 851 851 851 851 851 851 852 851 851 850 850 849 849 849 848 847 846 844 842 840 837 835 833 831 828 826 824 821 819 817 813 808 804 800 796
750 754 757 761 765 770 773 777 780 782 785 788 792 795 798 802 804 806 808 811 813 814 816 818 819 820 821 822 823 826 829 831 832 834 836 838 839 841 843 845 846 846 847 848 849 849 850 850 850 850 851 851 851 851 851 851 851 851 851 850 850 849 849 848 847 846 845 843 841 840 837 835 833 831 829 827 825 822 818 815 812 807 803 798 793
748 752 757 760 763 768 771 775 778 780 783 787 791 794 797 800 803 805 807 809 811 813 814 816 817 818 819 820 823 825 828 831 832 833 835 837 838 840 842 844 845 846 847 847 848 849 849 849 849 850 850 850 851 851 851 851 850 850 850 849 849 849 848 847 846 845 845 843 841 839 837 835 833 831 829 826 824 821 818 815 811 806 802 797 791
747 751 755 759 762 766 770 773 776 779 782 786 789 793 796 799 801 803 805 807 809 810 812 814 816 817 817 820 823 825 827 830 831 833 835 836 837 839 841 843 844 845 846 846 847 848 848 848 849 849 849 850 850 850 850 850 850 849 849 848 848 848 847 846 845 844 844 842 840 839 837 836 833 830 828 825 823 820 817 814 811 807 803 798 793
746 750 754 758 761 764 768 771 775 778 781 785 788 792 795 797 799 801 803 805 807 810 812 813 814 816 817 820 823 825 827 829 831 832 834 835 837 838 840 842 843 844 845 845 846 847 847 848 848 849 849 849 850 850 849 849 849 848 848 847 847 846 846 845 844 843 843 841 840 838 837 835 833 829 827 824 821 818 815 813 810 807 803 798 794
745 749 753 757 760 764 767 770 773 776 780 783 787 790 793 795 797 799 801 803 806 808 810 812 814 816 818 820 823 824 826 828 830 832 834 835 837 838 840 841 842 843 844 844 845 845 846 847 847 848 849 849 849 849 849 848 848 847 847 846 846 845 844 844 843 843 842 841 839 838 836 835 832 828 825 823 821 818 814 811 808 806 802 798 794
745 748 752 756 759 763 766 769 772 775 778 782 785 788 791 793 795 798 800 802 805 807 809 811 813 816 818 820 822 823 825 827 829 831 833 835 836 837 838 839 840 842 842 843 843 844 845 846 847 847 848 848 848 848 848 848 847 846 846 845 845 845 844 843 842 842 841 840 839 838 835 833 830 826 824 822 820 817 815 812 809 805 802 797 793
744 747 751 754 758 761 764 767 770 773 777 780 782 786 788 791 794 796 799 801 804 806 809 811 813 815 817 819 821 822 823 825 828 830 832 834 836 837 838 838 839 840 841 841 842 843 844 845 846 847 847 847 847 847 847 847 846 846 845 845 845 844 843 843 842 842 841 840 839 837 833 830 828 825 823 820 818 816 814 811 809 805 801 796 791
743 746 749 753 756 759 762 765 769 772 775 778 781 784 786 790 792 795 798 801 803 805 807 809 812 814 816 818 820 821 822 824 826 828 830 832 834 836 837 838 839 839 840 841 842 842 843 844 845 846 846 845 846 846 846 846 846 845 845 844 844 843 843 842 841 841 840 839 837 834 831 829 827 825 823 820 818 816 813 810 807 804 800 796 791
741 744 748 750 754 757 761 764 767 770 773 776 779 782 785 788 791 793 797 800 803 805 807 808 811 813 815 817 818 819 821 823 825 827 829 831 833 835 836 837 838 839 839 840 841 841 842 843 844 844 844 844 845 845 845 845 845 844 844 844 843 843 842 841 840 839 838 837 835 832 829 828 827 825 823 821 819 816 814 810 807 804 800 796 792
740 743 746 748 752 755 758 762 765 768 771 774 777 780 783 786 789 792 795 798 801 804 806 807 809 812 814 816 817 818 820 822 824 826 828 830 832 834 835 837 837 838 838 839 840 840 840 841 842 843 842 843 843 844 844 844 844 844 843 843 842 842 841 840 839 837 836 834 832 830 828 828 827 825 823 821 818 816 814 810 807 804 801 797 792
739 742 745 747 751 754 757 761 763 766 770 773 775 778 781 784 787 791 794 797 800 803 805 806 808 811 814 816 816 817 819 821 823 825 827 829 831 832 834 835 836 837 837 838 838 839 839 839 840 841 841 841 842 843 843 843 843 843 842 842 841 841 840 839 838 836 835 833 830 829 829 828 826 824 822 820 817 815 813 810 808 805 801 797 793
738 741 744 747 750 753 756 760 762 765 769 771 774 777 780 782 786 790 793 796 799 802 804 805 808 810 812 815 816 816 818 819 821 823 825 827 830 831 832 833 834 835 835 836 837 837 837 837 838 839 840 840 841 842 842 842 842 842 841 841 840 839 839 838 836 835 834 832 830 829 829 827 825 824 822 819 817 814 812 810 807 804 801 798 793
736 739 742 746 749 752 755 759 761 765 768 770 773 777 779 782 786 789 792 795 797 799 801 803 806 808 811 814 815 815 816 818 819 820 821 823 826 829 830 831 832 833 833 835 835 836 836 836 836 837 838 839 840 841 841 841 841 840 840 839 839 838 838 836 835 834 833 831 830 829 828 826 825 823 821 819 816 814 811 809 806 803 800 798 794
734 737 741 744 748 751 754 757 760 763 766 768 772 775 778 782 785 788 791 794 795 798 800 802 805 808 811 813 814 814 814 816 818 818 819 821 824 827 828 829 831 831 832 833 834 834 834 834 834 835 837 838 839 839 840 840 839 839 839 838 838 837 836 835 834 833 832 831 830 829 827 826 825 823 821 818 816 814 812 808 805 802 799 796 794
734 737 741 744 746 750 752 755 758 761 764 767 771 774 777 780 784 787 790 791 794 796 799 801 804 807 810 811 812 812 813 814 816 817 818 820 822 824 826 828 829 830 831 832 832 832 831 832 833 834 835 836 837 838 838 838 838 838 837 837 836 836 835 834 833 832 831 830 829 828 827 826 824 823 821 818 816 814 812 809 805 802 798 795 792
733 737 741 743 745 748 751 754 757 759 762 766 769 772 776 779 783 786 787 790 792 794 797 801 803 805 807 809 810 811 811 813 815 816 817 819 821 823 824 826 827 828 829 831 831 831 831 831 832 833 834 835 836 836 836 836 836 836 836 835 835 834 833 832 832 831 831 830 829 828 827 826 824 823 820 818 817 814 812 809 805 802 799 795 791
732 736 740 742 744 747 750 753 756 759 762 765 767 771 774 777 780 783 785 788 791 792 795 799 801 802 804 806 807 809 810 811 812 814 816 817 819 820 822 824 826 827 827 829 830 831 831 832 832 833 833 834 834 835 835 834 834 834 833 833 833 832 832 831 830 830 830 829 828 827 827 825 824 822 820 818 816 814 811 808 805 802 799 795 790
731 735 738 740 743 745 748 751 755 758 761 764 768 771 774 776 779 781 784 786 789 791 793 796 798 799 802 804 805 806 808 809 810 811 813 815 816 818 820 822 823 825 826 827 829 830 831 831 831 832 832 833 833 833 833 833 832 831 831 830 830 830 830 829 829 828 828 828 827 826 826 825 823 822 820 818 816 814 811 808 805 802 799 796 792
730 733 735 738 741 744 747 750 753 757 760 763 766 769 771 774 776 778 780 783 785 788 791 793 795 797 799 801 802 804 805 806 806 807 810 811 813 815 817 819 821 822 824 826 827 829 830 830 830 831 831 832 832 832 831 831 830 829 828 828 827 827 827 827 826 827 827 826 826 825 825 824 823 821 819 817 816 813 811 808 806 802 799 796 793
729 732 734 737 741 744 747 750 752 755 759 762 765 767 769 772 774 777 779 781 783 785 788 790 792 794 796 797 799 800 802 803 803 804 807 809 811 813 814 816 818 820 822 824 826 828 828 829 829 830 830 830 830 830 829 828 827 826 826 826 826 826 826 826 826 826 826 825 825 824 823 822 821 820 818 817 815 813 810 808 806 802 800 797 793
729 732 734 737 740 742 745 748 751 754 757 760 764 767 770 772 774 776 778 780 782 784 786 788 790 792 793 795 796 798 799 801 802 804 805 807 810 811 813 815 816 819 821 823 826 827 827 827 828 828 828 828 828 827 827 826 825 825 824 825 825 825 825 825 825 825 824 824 823 823 822 821 820 819 818 816 814 812 810 808 805 802 800 797 794
728 730 733 736 738 740 744 747 750 753 756 759 762 765 769 772 774 776 778 779 781 783 786 788 790 791 792 794 795 797 799 800 801 803 805 807 809 811 812 814 816 818 820 822 824 825 825 826 826 827 827 826 826 825 825 824 824 823 823 823 823 823 823 824 823 823 823 822 822 821 821 820 819 818 817 815 813 811 809 807 805 803 800 798 795
727 729 733 735 737 740 743 746 749 752 755 758 761 763 766 769 771 774 776 778 780 782 785 787 788 790 791 793 794 795 797 798 800 802 804 806 808 810 812 813 815 817 819 820 822 823 823 824 825 825 825 825 824 824 823 823 822 822 822 821 821 821 821 821 821 821 821 820 820 820 819 818 818 817 815 814 812 810 808 807 805 802 800 798 795
726 729 731 734 737 740 742 745 747 750 752 755 759 761 764 766 768 771 775 777 780 782 784 786 787 789 790 792 792 793 795 797 799 801 803 805 807 809 811 812 814 816 817 819 820 821 822 823 823 823 823 823 822 822 821 821 820 820 820 820 820 819 819 819 819 819 819 819 818 818 818 817 817 816 814 812 811 809 808 806 804 802 800 798 795
725 727 729 733 736 738 741 743 746 748 751 754 757 759 761 764 766 769 772 774 777 780 782 784 786 787 789 790 791 792 794 796 798 800 802 803 806 808 809 811 813 814 816 817 818 819 820 821 821 821 821 821 820 820 819 819 818 818 818 818 818 818 818 818 817 817 817 817 817 817 816 816 815 814 812 811 810 809 807 805 804 802 800 798 795
723 725 728 732 735 737 739 741 744 746 749 752 755 757 760 762 765 768 770 772 775 777 780 782 784 786 787 788 790 792 793 795 797 799 800 802 804 806 808 810 811 813 814 815 816 817 818 819 819 819 819 819 818 818 817 816 816 816 816 816 816 816 816 816 816 816 815 815 815 815 815 815 814 812 811 810 809 808 806 805 803 801 799 797 795
721 724 728 732 735 737 739 740 742 744 747 750 753 756 759 761 764 767 769 771 774 776 778 780 783 784 786 787 789 790 792 794 796 797 799 801 802 804 806 808 809 810 812 813 814 815 816 816 817 817 817 817 817 816 815 815 814 814 814 814 814 814 814 814 814 814 814 813 813 813 814 813 811 810 810 809 808 807 805 804 802 801 799 797 794
721 723 726 729 732 736 739 741 742 744 746 749 752 755 758 760 763 765 767 770 772 774 777 779 781 783 784 785 787 789 791 793 795 796 798 800 801 803 804 805 807 808 809 810 811 812 813 814 814 815 815 815 815 814 813 813 812 812 812 812 812 812 812 812 812 812 812 812 812 812 812 811 809 809 809 808 807 806 804 803 802 800 798 796 794
725 726 727 728 729 732 736 740 742 744 746 748 751 754 756 758 761 762 765 768 770 773 775 776 778 779 781 783 785 788 790 792 794 795 796 798 799 801 802 803 805 806 807 808 809 810 810 811 811 812 812 812 812 812 811 811 811 811 811 811 810 810 810 810 810 810 810 810 811 810 810 809 808 808 807 807 806 804 803 802 801 798 796 795 794
724 727 730 730 729 730 734 737 740 743 745 748 750 752 754 756 758 760 763 765 767 770 772 773 775 776 778 780 782 785 787 789 790 792 794 795 796 798 800 801 802 804 805 806 807 807 807 808 808 809 809 809 809 809 809 809 809 809 809 809 809 808 808 808 809 809 809 809 809 809 808 807 807 807 806 805 804 803 802 801 799 797 796 794 793
720 723 728 730 731 732 734 736 739 741 743 746 748 750 752 754 756 759 761 763 764 766 768 770 772 773 775 777 778 780 783 785 787 789 790 792 793 795 796 798 799 801 802 803 804 804 805 805 805 806 806 807 807 807 807 807 807 807 807 807 807 807 807 807 807 807 807 807 807 807 806 806 806 805 804 804 803 802 801 799 797 796 795 793 791
719 721 726 729 731 732 734 737 739 741 743 745 747 749 751 753 755 757 759 760 761 763 765 767 768 770 771 772 774 777 780 782 784 785 787 788 790 791 793 794 796 797 798 800 801 801 802 802 802 803 804 804 805 805 805 805 805 805 805 805 805 805 805 805 805 806 806 805 805 805 805 805 804 803 802 802 801 800 799 797 796 795 793 791 790
719 722 725 728 730 731 733 736 739 741 743 745 746 748 749 751 752 754 756 757 759 761 762 764 765 767 767 768 771 775 778 779 781 783 784 785 786 788 789 791 793 794 795 797 798 798 799 799 800 801 801 802 802 803 803 803 803 803 803 803 803 803 803 803 803 804 804 804 804 803 803 803 802 801 801 800 799 798 797 796 795 793 792 790 789
719 721 724 727 729 730 732 735 737 740 741 743 745 746 747 749 751 753 754 756 757 759 759 761 762 764 765 766 769 772 775 777 779 780 781 782 783 784 786 788 790 791 793 794 795 796 796 797 797 798 799 799 800 800 801 801 801 801 801 801 801 801 801 801 802 802 802 802 802 801 801 801 800 800 799 798 797 796 795 794 793 792 791 789 788
718 721 724 726 728 730 732 734 736 738 740 741 743 744 746 748 750 752 753 754 755 756 757 759 761 763 764 765 767 770 772 774 776 777 778 779 780 781 783 785 786 788 790 791 792 793 794 794 795 795 796 796 797 798 798 799 799 799 799 799 799 799 799 799 799 799 799 800 799 799 799 798 798 798 797 796 795 795 794 793 792 791 789 788 787
717 720 723 726 728 730 732 733 735 737 738 740 742 743 745 746 748 749 751 752 753 754 756 758 759 761 762 763 765 767 769 771 773 774 775 776 777 778 780 781 783 785 786 787 788 790 790 791 792 792 793 794 794 795 796 796 797 797 797 797 796 796 796 796 796 796 796 796 796 796 796 796 796 795 795 794 794 793 792 791 790 789 788 786 785
717 719 722 725 727 729 731 732 734 735 736 738 740 741 743 744 745 746 748 749 750 752 754 756 757 758 759 761 763 764 766 768 769 770 772 773 774 775 777 778 779 780 781 783 784 786 787 788 789 789 790 791 791 792 793 794 794 794 794 794 794 794 794 794 794 794 794 793 793 793 793 793 793 793 793 792 792 791 790 789 788 787 786 785 784
716 719 721 724 726 728 729 730 732 733 734 736 738 739 741 742 743 744 745 747 748 750 752 754 756 757 758 759 760 762 764 765 767 768 769 770 771 773 774 775 776 777 778 779 781 782 784 785 786 787 788 788 789 789 790 790 791 792 792 792 793 792 792 792 792 792 791 791 791 790 790 790 791 791 791 790 789 789 788 787 786 785 784 783 782
716 718 720 723 725 727 728 729 730 732 733 735 736 738 739 740 741 743 744 745 747 748 750 752 754 755 756 757 758 760 762 763 765 766 767 768 769 770 771 772 773 774 775 777 778 779 781 782 783 784 785 785 786 786 787 787 788 789 789 790 790 790 790 790 790 789 789 789 789 789 789 789 789 788 788 788 787 786 785 785 784 783 782 781 780
716 717 719 721 723 725 726 727 729 730 732 733 735 736 737 738 739 741 742 743 745 746 748 750 751 753 754 756 757 758 759 761 763 764 765 766 767 768 769 770 771 772 773 774 776 777 778 779 780 780 781 782 782 783 784 784 785 786 786 787 787 787 788 788 787 787 787 787 787 787 787 786 786 786 785 785 784 784 783 783 782 781 781 780 778
715 716 717 719 721 722 724 725 727 728 730 731 732 733 735 736 737 738 740 742 743 745 746 748 749 751 752 754 755 756 757 758 760 762 763 764 765 766 767 768 769 770 771 772 774 775 776 776 777 778 779 779 780 780 781 781 782 783 783 784 784 784 785 785 785 785 785 785 785 785 784 784 784 783 782 782 782 781 781 780 780 779 779 778 777
715 715 716 718 719 721 722 724 725 727 729 730 731 732 733 734 735 737 738 740 741 743 744 746 747 749 751 752 753 754 755 756 757 759 760 761 763 764 765 766 767 768 769 770 771 772 773 774 774 775 776 776 777 778 778 778 779 780 781 781 781 781 782 782 782 782 782 782 782 782 782 781 781 780 780 779 779 779 778 778 778 777 777 776 775
Wind_Speed
29 31 29 27 28 27 27 29 28 27 27 27 26 23 21 20 20 20 17 15 15 16 16 16 15 14 14 14 13 13 13 13 12 13 13 12 12 12 12 11 11 11 10 9 8 8 8 8 8 8 8 7 6 6 5 6 6 6 7 7 7 7 9 10 9 12 18 19 18 21 22 21 22 22 23 24 25 25 26 29 32 33 34 34 33
29 31 29 27 28 28 29 30 29 28 27 26 26 24 22 21 20 19 17 15 16 17 17 17 16 15 15 14 14 13 13 13 13 12 12 12 12 12 11 11 11 11 10 9 9 9 9 9 8 7 7 6 6 6 6 6 6 6 7 7 8 8 9 11 12 12 17 21 22 22 22 21 23 23 23 23 24 25 27 30 32 31 34 35 34
29 30 29 28 28 28 29 30 29 28 27 25 25 24 23 22 20 19 18 17 17 17 18 18 17 16 15 15 14 14 13 13 12 12 12 13 12 12 11 11 11 10 10 10 9 9 9 8 7 6 5 5 4 5 5 5 6 6 6 7 8 9 9 11 13 14 17 21 22 22 22 22 23 22 22 23 23 24 28 30 30 31 35 36 34
30 30 30 29 29 30 30 30 28 27 26 26 26 25 24 23 21 19 18 19 19 18 18 18 17 17 16 15 15 14 14 13 12 12 12 12 12 12 11 11 10 10 10 10 9 8 8 8 6 5 4 4 4 4 4 5 5 5 6 7 8 10 11 11 13 15 17 19 22 22 22 23 22 22 22 22 22 25 27 28 29 33 36 36 34
31 31 31 31 31 32 30 30 29 27 27 28 28 27 25 23 21 20 20 20 19 19 19 18 18 17 16 16 15 14 14 13 13 13 13 12 12 12 12 11 10 10 10 9 9 8 8 7 6 5 4 3 3 3 4 5 5 5 6 7 8 10 12 12 13 15 17 19 22 22 22 22 21 22 22 22 25 27 26 26 29 33 35 35 34
32 31 32 32 32 31 30 30 30 27 28 30 29 28 26 24 22 21 21 20 20 20 20 19 18 18 17 16 15 14 14 13 13 13 13 12 12 12 12 11 10 10 10 9 8 8 8 7 6 5 4 3 3 3 3 3 4 5 6 7 8 10 11 13 14 15 17 19 20 22 22 21 22 22 21 22 26 27 26 27 30 33 34 35 35
32 31 32 34 33 31 29 30 30 29 30 31 29 28 26 24 22 21 21 21 21 21 20 19 19 18 17 17 16 15 15 14 13 13 12 12 12 12 12 11 10 10 10 9 8 8 7 6 5 5 4 4 3 1 0 1 1 3 5 6 7 9 11 13 14 15 17 18 19 21 21 21 21 21 21 24 25 24 25 28 30 32 33 35 36
31 31 33 33 31 30 30 29 30 31 32 31 29 28 26 24 22 21 22 21 21 21 21 20 20 19 18 18 17 16 16 15 14 13 13 13 12 12 11 11 11 10 10 9 8 8 7 6 6 5 4 4 3 1 2 2 2 3 4 5 6 8 10 11 13 15 16 17 18 20 20 21 21 21 23 25 22 22 26 28 29 32 34 35 37
31 32 32 31 30 30 30 28 30 32 32 31 30 28 26 24 22 22 22 22 22 21 21 21 21 20 20 20 19 19 18 18 17 16 16 16 15 13 12 12 11 11 10 9 8 8 7 7 6 4 3 3 4 3 5 5 5 5 6 6 7 8 9 10 11 13 15 16 17 19 20 20 20 21 23 23 22 24 29 29 29 31 33 35 36
31 31 31 30 31 31 29 29 30 32 33 32 30 28 26 24 23 22 22 22 22 22 21 21 21 22 22 23 22 22 21 20 20 19 17 16 16 14 13 12 11 11 10 10 9 8 8 8 6 2 1 3 3 2 4 4 5 6 7 8 8 9 9 9 10 11 13 15 16 18 18 18 20 22 22 23 24 26 29 29 29 31 33 31 31
31 31 30 30 32 30 28 29 32 34 33 32 31 29 26 25 24 23 23 22 22 23 24 23 22 24 26 25 23 23 21 20 20 19 18 17 16 15 14 13 12 12 11 10 10 9 9 9 6 2 2 2 1 2 4 5 7 7 8 8 9 11 12 11 12 12 12 14 16 18 18 19 21 23 23 24 25 27 29 29 29 30 30 26 25
30 31 29 30 31 30 27 30 34 35 33 31 31 29 26 25 25 24 24 24 24 25 25 23 22 26 28 25 22 22 21 19 20 20 19 19 18 15 14 13 12 12 11 10 10 10 9 8 6 3 2 2 2 4 5 6 7 9 9 9 10 12 13 14 15 14 13 14 17 18 18 19 22 24 25 25 27 28 29 29 29 29 30 28 25
30 30 29 30 30 28 27 30 33 33 32 32 31 28 26 25 25 25 24 24 25 25 25 22 21 25 26 22 20 20 20 19 20 20 20 20 19 16 14 13 13 12 11 11 11 12 12 9 6 5 5 5 3 4 5 5 6 8 8 9 12 12 12 14 15 15 14 15 17 19 20 21 23 26 27 27 28 30 28 28 30 30 30 31 30
30 29 29 29 28 27 28 29 31 32 32 32 31 28 26 25 24 24 25 25 26 25 23 21 22 23 22 20 19 19 18 19 21 21 21 20 19 16 12 12 13 12 11 11 10 11 11 10 8 7 8 7 6 7 7 7 7 6 6 9 11 12 13 14 13 12 13 14 17 20 23 24 25 27 29 29 30 30 30 31 32 32 32 32 33
27 28 29 28 28 28 29 29 30 31 33 33 31 28 27 27 25 24 25 25 25 24 22 22 23 22 19 18 19 18 18 19 20 22 23 21 21 17 10 9 13 12 10 10 10 9 9 8 7 7 7 8 9 9 9 8 6 3 6 9 10 11 12 12 9 9 12 15 17 21 23 24 25 27 29 30 30 30 31 31 32 31 31 32 33
28 29 29 29 29 30 30 30 30 32 33 32 31 29 28 27 25 25 25 24 24 24 22 22 22 21 19 18 19 18 18 20 20 21 24 24 23 19 10 7 10 12 10 9 9 9 9 9 8 7 6 8 10 10 9 8 4 4 7 9 9 10 10 9 9 12 15 16 17 19 21 22 24 26 28 28 28 28 28 28 29 29 29 28 28
29 31 30 30 31 31 31 31 30 31 32 31 30 29 28 27 25 26 26 24 23 23 22 21 21 20 20 19 18 17 19 21 20 20 23 26 26 21 12 6 8 10 9 9 9 10 10 10 10 8 8 10 10 9 9 7 4 4 7 8 9 9 9 9 13 15 14 14 16 18 20 22 23 24 26 26 26 27 26 26 28 30 28 22 20
28 31 30 31 32 31 31 31 31 31 31 30 30 29 28 27 27 27 27 25 23 22 22 21 20 20 20 20 17 17 19 21 19 18 22 26 27 22 12 7 7 9 10 10 10 11 11 12 12 9 8 10 9 9 8 6 3 4 6 8 9 9 10 13 15 14 13 15 19 19 19 21 22 23 24 25 25 27 27 27 29 29 26 22 21
28 30 29 31 31 30 30 30 31 32 31 31 32 31 29 28 28 26 26 25 23 22 22 21 20 20 20 19 16 16 20 21 19 18 21 25 27 22 13 9 9 10 11 11 11 11 13 14 15 13 11 9 8 8 7 5 3 4 6 7 8 10 12 13 15 15 17 21 21 20 19 20 20 21 23 24 26 27 28 29 30 28 25 26 27
27 28 28 29 29 28 29 30 31 32 31 31 32 31 29 29 28 26 24 23 22 21 21 20 20 19 19 18 16 15 18 20 20 20 20 23 26 23 15 11 11 11 12 12 12 12 13 14 15 16 16 14 11 9 8 5 4 5 6 6 8 10 11 12 14 16 20 23 21 18 18 19 20 21 22 25 27 28 28 29 30 29 28 28 29
29 29 28 28 28 27 28 31 32 31 31 31 32 29 27 29 29 26 23 21 21 20 19 19 19 18 18 18 15 14 16 17 19 22 22 22 26 25 19 13 10 9 11 13 12 13 14 14 13 13 15 15 12 10 8 6 5 6 6 7 8 9 10 13 15 17 20 21 18 17 18 19 20 21 23 25 27 28 28 30 31 31 31 29 29
28 29 29 27 27 27 29 31 32 30 30 31 31 28 26 27 28 25 23 22 21 20 19 18 18 18 18 17 16 15 15 16 20 25 25 23 25 26 23 17 11 6 7 11 12 14 15 15 15 13 13 12 9 8 8 7 7 6 6 7 8 9 10 14 16 18 19 19 17 16 18 19 20 21 23 26 28 27 28 31 31 32 32 32 31
27 27 26 25 26 28 30 32 33 32 32 33 32 30 28 28 27 25 23 22 21 21 20 19 17 16 17 17 17 16 16 17 20 25 25 23 24 25 25 21 14 8 6 5 8 12 15 16 17 15 14 12 9 8 9 9 9 7 6 7 7 9 11 14 17 18 18 17 16 16 18 19 20 21 24 27 28 27 28 31 32 33 34 34 34
29 27 25 25 28 31 32 33 34 33 34 33 32 31 30 29 27 24 22 23 24 23 23 22 19 17 18 18 17 17 16 17 20 24 24 24 23 23 25 24 18 13 8 3 4 7 11 13 14 14 13 11 9 9 10 11 10 8 7 7 9 11 13 16 18 17 14 14 14 15 17 18 19 21 24 26 26 26 28 30 32 33 34 35 36
29 26 24 26 30 33 34 34 35 35 35 34 33 32 31 29 26 24 23 26 27 25 23 22 20 19 19 18 18 17 17 17 20 22 23 24 23 22 25 25 21 17 13 7 2 3 7 10 11 12 11 9 9 10 12 12 11 10 10 11 12 14 15 18 18 14 12 13 12 13 16 18 19 21 24 24 24 25 28 30 30 32 33 35 37
27 26 25 26 29 33 34 34 35 35 34 33 32 32 31 29 26 24 25 26 27 25 23 22 20 19 19 18 18 18 18 18 20 21 22 24 24 23 24 25 23 20 18 13 8 4 6 9 9 9 9 9 11 12 12 12 11 12 13 14 15 16 17 18 18 14 12 12 10 12 16 17 18 21 23 22 23 26 27 28 29 31 32 33 35
26 26 26 27 29 33 34 34 34 34 33 30 29 29 28 27 26 25 25 24 23 22 22 22 21 19 18 18 18 19 20 20 20 21 24 25 25 24 24 25 25 24 22 19 13 8 6 7 8 9 10 12 13 13 13 13 12 14 15 15 17 18 17 16 16 15 14 12 8 12 16 16 17 21 22 20 22 26 27 26 28 30 30 30 30
26 26 27 28 29 32 34 33 33 33 31 29 29 29 28 27 26 27 26 24 23 22 22 22 21 19 19 20 20 19 20 21 20 22 26 28 27 25 25 26 27 27 25 22 17 11 8 8 10 11 12 13 14 14 14 14 16 18 18 17 19 18 15 14 14 14 14 11 8 12 15 15 16 20 20 19 22 25 25 25 27 29 29 28 27
26 25 26 25 26 29 32 33 33 33 30 28 28 28 28 27 26 25 24 23 23 23 23 23 23 22 21 21 22 21 20 21 22 23 25 28 28 27 26 27 28 29 27 23 17 11 9 9 10 10 12 13 14 15 15 17 19 19 17 16 15 12 11 11 11 11 11 9 9 13 14 14 16 18 17 19 22 24 23 24 27 28 27 26 26
23 23 23 21 24 29 31 30 31 31 29 26 25 24 24 22 22 23 23 22 22 24 24 23 23 22 21 20 22 22 21 21 21 21 22 24 26 25 24 25 26 25 24 23 18 13 11 11 12 12 13 14 16 17 18 19 18 15 13 12 11 10 11 12 11 11 11 10 12 13 13 13 15 15 16 19 21 22 22 23 25 26 25 25 25
20 21 20 20 24 27 27 25 26 26 25 24 23 24 22 20 20 21 22 22 23 24 24 22 21 21 20 19 20 20 19 19 20 21 19 20 22 22 20 20 22 21 19 19 20 16 12 11 12 13 14 15 16 17 17 18 16 13 12 12 12 12 12 12 12 12 12 12 12 12 11 12 13 13 16 18 19 20 22 22 22 24 24 25 25
19 19 19 21 25 26 24 24 25 25 24 23 23 24 23 21 20 20 21 22 23 22 22 22 20 20 19 17 18 21 21 19 20 20 18 18 21 21 18 16 18 18 16 17 20 19 16 13 13 14 14 15 16 16 17 18 17 14 12 13 14 14 14 14 14 14 13 12 12 11 10 11 12 14 17 18 18 21 21 19 20 22 23 25 26
20 20 21 22 24 24 23 25 25 25 25 25 23 23 23 22 20 19 19 21 22 22 22 22 21 22 21 16 15 20 23 20 18 19 17 18 22 22 17 16 18 18 17 18 18 17 16 15 15 16 16 17 17 17 18 19 18 16 14 15 15 14 13 13 13 12 12 13 11 8 8 11 13 16 18 19 19 19 18 18 20 22 22 23 26
20 22 25 25 24 23 23 24 24 24 25 25 23 23 23 23 22 22 22 23 23 22 23 21 20 23 24 17 12 17 21 19 18 19 19 20 23 22 19 18 20 19 18 18 18 16 15 16 16 16 16 16 17 18 19 20 18 16 14 13 13 13 13 13 12 12 12 11 7 5 8 12 15 17 19 19 18 17 16 18 19 20 21 23 25
17 22 26 25 22 22 24 25 25 25 25 25 23 22 22 22 23 24 23 23 23 22 22 22 22 24 25 19 13 14 17 18 19 21 22 22 24 24 21 19 19 19 18 18 17 16 16 17 17 18 18 17 18 19 21 20 17 14 13 13 13 14 13 13 12 12 11 8 5 6 11 15 17 19 20 17 15 15 17 18 17 18 22 25 26
18 23 26 23 20 20 23 25 25 26 26 25 24 23 22 21 22 23 22 21 21 20 20 22 23 23 24 21 16 14 16 19 21 23 23 23 24 25 23 21 19 19 19 19 19 19 19 18 18 17 18 18 19 20 21 19 16 15 14 15 14 14 13 12 11 10 8 6 6 10 16 19 22 22 18 14 14 16 17 16 16 20 24 26 26
22 26 27 24 21 20 21 22 22 24 25 24 23 23 22 21 22 23 21 20 21 20 19 20 23 23 22 21 19 17 18 20 22 23 24 24 24 24 23 22 21 20 19 19 20 21 21 22 21 20 20 19 20 21 21 18 16 14 14 14 14 14 15 14 13 12 11 10 11 15 19 21 21 18 14 13 15 17 16 16 18 23 25 24 22
21 25 26 25 24 24 23 22 21 22 23 23 22 22 22 21 23 23 21 21 22 21 19 20 23 25 24 23 22 21 21 23 24 24 25 25 25 24 22 20 19 18 17 17 18 19 20 21 22 22 22 22 21 22 21 18 16 15 15 15 15 14 13 12 11 12 12 14 14 15 16 16 15 13 13 14 15 15 16 19 23 24 23 20 20
22 24 25 24 24 24 24 24 24 24 23 22 21 22 22 22 22 22 21 21 22 22 20 19 21 24 25 27 27 26 25 26 26 26 26 26 25 25 23 20 18 17 16 16 17 18 19 21 21 21 22 21 21 22 22 20 17 16 15 15 14 14 13 11 11 11 12 13 13 13 14 14 13 13 14 15 14 15 19 22 24 22 19 18 20
24 25 25 23 23 22 22 22 23 24 24 22 21 21 23 22 22 21 19 19 21 23 21 19 19 21 24 28 31 31 30 29 28 28 28 28 27 26 25 23 21 19 18 18 17 18 20 21 21 21 21 21 21 22 21 19 16 15 15 15 15 14 13 12 12 12 13 14 14 15 15 15 15 16 16 15 15 17 20 22 21 19 18 19 20
22 25 26 24 23 22 21 21 22 22 23 22 21 21 23 23 22 21 20 19 20 21 21 19 19 20 24 29 33 35 34 32 30 29 29 29 29 29 27 26 25 23 21 20 20 20 21 21 19 19 19 19 21 21 19 17 16 16 16 15 15 14 13 12 12 13 14 14 15 15 15 16 17 18 18 17 16 18 19 20 20 20 20 20 19
21 25 26 23 22 22 21 21 21 21 21 21 20 20 22 22 21 20 19 18 17 18 19 20 19 18 22 28 33 34 34 32 30 29 29 29 30 30 30 29 28 26 24 23 23 23 23 21 19 18 17 17 18 18 17 16 16 15 14 13 14 14 13 12 12 13 14 15 15 15 15 16 17 17 16 16 17 18 19 19 19 20 20 19 19
20 24 24 22 21 21 21 21 21 21 21 21 21 19 18 18 19 18 17 16 17 18 18 18 16 14 17 25 29 31 31 30 28 28 28 28 29 30 31 30 29 28 27 26 25 25 24 23 21 20 20 19 17 16 16 16 15 15 15 17 18 18 16 14 14 15 15 15 15 16 16 16 16 16 16 16 17 18 19 19 19 20 20 20 21
19 22 22 20 19 19 19 19 20 20 20 21 21 19 16 15 17 18 17 16 17 17 15 14 14 14 17 24 28 29 29 27 25 25 27 27 27 28 29 30 29 29 28 27 26 25 25 24 22 21 22 21 19 18 18 17 17 17 18 19 19 19 18 18 18 17 17 17 17 17 17 16 16 17 17 16 16 18 19 20 20 20 21 21 22
19 21 21 19 16 16 17 17 18 19 19 19 19 20 18 16 17 19 19 17 17 16 15 16 16 15 18 25 29 30 28 26 23 23 25 26 25 26 27 27 28 28 28 28 27 26 26 25 23 22 22 21 20 19 19 18 18 18 17 17 17 17 17 18 18 17 18 19 18 18 18 17 17 16 16 17 17 19 20 20 20 20 21 21 22
19 19 19 18 16 16 16 17 17 18 19 19 18 19 19 19 19 20 19 17 17 17 17 17 17 15 17 23 29 30 28 25 23 22 23 25 25 25 25 25 26 28 30 30 28 26 26 25 24 24 24 23 21 20 20 20 21 20 18 18 19 19 19 19 18 18 19 20 20 21 21 19 16 15 17 19 20 20 19 19 19 19 19 20 20
19 18 18 18 17 16 17 18 18 18 18 18 18 17 18 19 20 19 17 16 17 18 17 16 16 16 17 21 26 28 27 25 23 21 22 24 24 25 25 26 26 28 29 29 27 25 24 23 23 24 24 24 22 22 22 22 22 22 21 20 20 20 20 20 19 18 19 19 18 17 17 15 14 15 18 21 22 21 20 20 19 19 19 20 20
18 17 16 16 16 16 16 17 18 18 17 17 18 18 18 18 18 17 17 17 17 18 17 17 18 19 19 20 23 25 26 25 22 21 22 23 23 24 25 25 24 23 23 22 21 21 21 21 22 23 23 23 23 23 24 23 22 21 21 21 21 20 20 20 19 17 17 16 15 14 14 15 16 18 19 21 22 23 22 22 21 20 20 20 21
14 14 16 17 17 17 17 17 18 18 17 17 18 18 17 17 18 17 16 16 16 16 17 17 18 19 19 20 21 22 22 22 22 21 21 22 22 22 22 21 19 17 17 18 19 20 21 22 23 23 23 23 23 24 25 26 25 23 23 23 24 23 22 22 21 20 18 17 16 17 19 21 21 21 22 22 23 22 21 20 20 20 19 20 20
11 12 15 17 17 16 16 15 16 17 16 15 16 17 16 16 17 17 16 16 17 18 18 19 19 18 17 18 19 19 19 21 23 22 22 22 22 22 22 20 19 19 20 21 22 22 23 23 23 23 23 23 23 23 23 23 23 23 23 24 24 24 22 21 20 18 17 17 18 20 22 23 23 23 23 23 22 20 19 19 19 19 19 19 20
7 7 9 11 12 13 13 12 13 15 14 11 12 14 14 13 15 16 16 16 18 19 20 19 19 18 17 17 18 19 19 21 23 24 24 24 24 25 25 24 23 22 23 23 24 25 25 24 24 24 24 24 25 24 24 24 23 22 21 21 22 21 20 19 19 18 19 20 22 23 24 24 24 24 24 23 21 20 19 19 19 19 19 19 20
Wind_Direction
177 176 175 173 172 171 169 170 169 165 165 166 164 164 167 166 167 171 167 165 171 172 174 174 169 165 162 157 152 146 143 139 135 132 126 124 126 123 123 122 119 120 120 119 120 116 107 97 91 85 79 74 59 50 41 28 26 19 13 5 355 352 345 337 324 308 311 316 319 320 322 324 324 325 324 324 327 328 326 327 326 325 325 325 326
176 175 175 171 169 169 167 167 168 165 164 165 164 165 167 165 162 164 165 166 170 173 174 173 170 167 162 157 154 149 145 142 138 135 132 132 130 128 130 130 128 129 130 129 126 119 113 103 95 88 80 72 59 51 40 30 28 19 8 2 347 341 342 336 327 314 310 315 320 321 323 325 323 323 325 325 326 328 328 327 326 325 325 325 326
173 171 173 169 167 168 166 166 167 167 167 166 164 165 167 166 163 162 166 167 169 173 173 170 168 166 162 158 153 150 149 146 142 141 140 138 135 135 137 137 137 139 138 136 131 122 115 107 100 96 88 81 66 52 43 34 28 17 2 354 344 338 339 335 327 315 308 311 317 318 320 322 321 323 325 325 326 329 329 326 325 325 324 324 326
170 167 168 167 167 167 165 165 164 165 168 167 163 163 164 166 164 163 165 165 167 171 171 168 167 165 162 158 154 153 151 147 146 147 145 143 143 141 141 142 143 145 144 140 136 130 123 117 113 108 101 98 79 54 48 37 25 17 359 347 343 339 336 332 324 315 309 308 311 314 317 319 321 324 325 325 327 329 327 325 324 325 324 325 326
168 166 165 163 164 165 164 164 164 164 168 168 164 164 163 162 162 164 165 165 167 170 169 168 168 165 161 159 155 154 152 150 150 151 151 152 150 147 146 148 148 148 148 143 139 138 131 126 124 119 115 107 85 55 41 33 20 9 353 343 342 338 333 331 325 319 313 308 309 314 319 321 323 325 327 329 330 327 325 326 325 325 325 325 326
167 166 166 164 163 164 164 166 167 167 169 168 165 165 164 161 162 165 167 167 168 169 169 168 167 164 162 160 156 154 153 154 155 155 157 157 154 154 152 151 153 150 147 146 145 143 138 135 130 123 118 102 81 57 38 40 28 6 350 342 341 338 334 334 330 323 318 314 314 318 321 324 325 326 328 332 330 326 326 327 326 326 326 325 325
166 166 165 164 163 164 165 166 170 170 169 165 163 164 163 162 164 167 170 170 169 168 169 169 167 165 163 159 157 156 153 154 156 157 160 159 157 159 157 154 155 152 151 152 149 145 144 140 134 131 131 122 110 100 49 91 65 6 345 338 342 341 339 337 332 328 326 323 321 321 322 324 326 326 328 330 328 327 330 330 326 326 327 325 324
166 164 163 161 163 166 167 167 170 170 167 164 163 163 162 163 166 170 171 170 168 169 170 169 167 165 163 159 157 155 152 155 160 161 163 164 163 163 162 160 158 157 158 155 152 152 148 145 150 157 166 174 169 130 73 69 53 12 347 345 352 350 345 339 334 332 330 326 323 322 322 323 324 326 328 331 332 332 333 331 324 322 325 324 323
163 162 161 161 162 164 165 166 166 166 165 164 163 163 162 165 169 170 171 170 169 171 171 169 167 165 161 160 159 159 160 165 170 172 172 170 168 168 170 170 167 164 163 159 158 158 153 161 176 182 189 185 158 97 62 47 26 14 5 2 0 352 343 335 330 329 327 324 324 324 323 321 324 329 331 333 334 331 330 328 322 320 321 320 321
162 162 163 164 163 162 162 163 164 163 164 165 164 163 163 167 170 170 170 169 170 173 172 168 168 166 162 162 163 164 169 173 174 175 176 172 169 171 175 176 174 172 170 169 170 169 172 185 194 193 191 183 159 82 33 8 354 354 354 350 341 329 322 318 315 319 320 320 323 325 322 320 324 329 329 328 329 327 326 324 320 320 321 319 320
162 162 164 163 161 161 160 162 165 164 164 165 166 165 165 169 170 169 168 170 173 174 170 168 170 170 168 167 169 171 174 178 177 174 176 176 172 173 177 179 177 178 179 178 179 181 186 196 210 248 263 232 248 321 335 331 327 331 333 330 321 308 302 300 301 308 313 315 321 324 319 316 322 325 324 323 324 323 322 321 319 319 321 320 319
162 161 162 160 158 159 160 163 166 166 165 167 167 166 169 170 169 170 169 171 173 171 168 170 174 174 171 170 174 177 177 179 179 176 179 180 175 174 177 179 180 183 184 184 189 191 189 193 208 238 249 256 296 310 313 318 320 319 318 320 316 302 292 289 290 296 302 305 313 319 317 316 319 319 318 317 318 318 318 318 318 319 318 317 314
159 158 159 158 158 158 159 162 166 167 168 168 166 168 172 171 169 170 170 170 170 169 170 173 172 170 171 172 177 180 182 183 184 184 184 182 177 173 175 182 186 185 186 193 197 193 188 188 194 209 227 242 258 265 273 293 304 304 305 314 319 312 301 294 287 285 290 296 301 308 314 316 313 311 313 314 312 312 313 315 318 319 316 315 313
157 156 158 158 158 160 161 162 165 167 170 169 168 171 173 171 169 170 171 172 173 173 174 173 168 166 171 177 180 182 188 190 190 192 191 184 178 175 175 183 188 186 191 198 195 182 180 189 202 208 218 230 231 234 258 286 291 289 307 320 322 323 317 309 297 287 292 299 300 303 310 311 307 307 313 314 310 309 310 311 316 318 316 315 315
157 157 159 160 162 164 166 165 165 167 170 170 171 172 170 168 169 170 171 174 176 176 177 177 174 172 176 182 182 185 192 194 192 195 197 189 183 183 176 171 182 191 195 193 186 178 181 193 207 205 203 215 227 240 270 297 298 311 341 333 324 323 321 319 321 319 313 311 308 307 308 309 307 309 314 316 313 313 314 315 320 321 319 318 319
162 162 162 164 166 167 168 166 166 168 170 170 171 171 168 166 167 168 167 168 171 174 177 179 179 180 182 183 184 189 196 195 194 198 200 193 188 188 178 159 180 193 193 187 184 187 195 203 206 205 211 226 239 252 274 294 307 339 342 332 323 325 328 331 332 328 324 322 319 312 308 310 316 320 323 324 324 325 327 328 330 329 323 321 321
166 165 165 166 168 169 168 167 166 167 170 172 172 171 169 169 170 170 167 165 167 169 172 175 178 182 184 184 188 195 196 194 198 202 200 195 192 189 183 174 187 190 187 191 194 194 201 205 200 204 223 232 241 255 271 288 317 342 333 326 326 330 329 320 318 323 329 327 320 313 312 321 330 333 335 337 338 340 339 334 332 330 325 323 323
165 166 170 170 169 169 169 168 168 169 172 176 175 173 173 174 174 172 169 169 172 173 174 175 178 183 186 187 193 197 192 190 195 200 198 196 193 189 187 192 197 195 195 199 200 201 205 203 196 198 213 223 234 250 264 281 315 338 330 326 329 330 320 313 320 332 335 326 321 321 327 336 340 339 341 343 344 344 340 333 331 330 327 326 325
170 170 172 170 169 170 170 171 173 172 173 174 173 172 173 174 173 171 171 174 177 178 177 176 179 185 188 189 193 195 190 188 192 197 197 195 192 188 188 199 202 202 204 201 200 207 214 211 207 207 211 218 231 245 253 264 301 330 332 331 326 318 310 314 326 333 327 323 326 333 340 343 343 343 345 345 343 342 340 338 338 336 332 329 326
175 172 169 166 169 171 171 173 174 172 171 171 171 171 172 172 170 168 171 174 174 176 178 177 179 183 185 189 191 190 187 187 190 194 194 194 193 188 186 202 209 207 206 202 200 208 215 218 221 222 223 230 240 244 245 252 277 303 320 324 314 305 303 313 324 326 323 323 328 336 341 344 345 345 344 343 342 342 343 346 346 342 336 330 327
175 172 168 167 170 171 171 174 174 171 171 171 169 170 170 171 170 167 167 169 169 173 175 172 173 174 177 185 189 188 190 190 190 192 192 193 195 191 189 202 215 210 205 204 205 209 214 221 228 227 222 226 236 241 241 250 266 286 310 314 306 302 303 307 314 320 323 325 330 338 342 344 346 345 344 343 342 342 345 347 347 344 340 334 328
168 167 167 166 168 170 172 174 172 169 169 169 167 166 166 167 167 165 164 166 167 166 163 160 163 165 170 182 188 191 197 199 195 194 194 194 196 195 195 201 211 208 198 204 213 217 217 222 229 227 217 215 228 240 244 254 265 282 309 310 303 304 302 301 307 314 318 321 328 338 343 345 346 345 343 341 339 342 346 345 343 343 343 340 335
162 162 163 163 165 169 172 173 171 169 168 167 165 163 163 163 163 162 162 163 160 157 156 156 156 161 173 186 189 189 197 202 200 199 198 196 198 200 201 203 210 211 197 208 231 229 222 222 223 220 214 215 231 249 252 255 263 281 303 304 302 304 300 300 304 307 310 318 328 340 344 344 344 344 341 339 339 344 347 344 342 343 343 343 342
163 160 159 160 162 166 169 171 170 168 167 165 163 161 162 162 161 161 162 160 156 155 158 160 162 170 183 188 186 185 190 197 202 204 201 198 200 203 204 206 211 211 204 224 274 238 213 208 207 205 208 220 241 255 257 259 265 275 286 290 297 298 296 299 302 305 314 322 329 341 344 341 342 342 338 337 341 346 347 345 343 344 345 345 345
158 154 153 155 158 161 163 165 167 167 166 165 164 162 161 160 161 163 162 160 159 160 162 169 177 184 187 186 184 186 190 196 202 204 201 201 203 204 205 208 210 210 209 212 230 203 181 180 187 196 209 232 253 260 262 263 265 270 275 280 286 285 287 293 296 302 318 321 325 343 344 337 338 339 336 338 344 346 344 344 344 344 346 347 346
157 159 158 156 157 158 158 159 163 166 166 166 165 163 163 163 164 164 161 161 166 169 172 181 189 188 184 184 185 185 186 192 200 201 199 202 207 207 208 210 210 213 216 213 205 196 182 179 187 202 220 242 258 263 263 261 261 266 269 274 277 275 277 284 285 291 307 311 323 346 339 331 335 336 334 338 345 344 342 343 343 344 346 348 347
159 160 157 154 157 160 160 159 162 163 164 164 164 165 166 168 168 169 167 167 172 178 180 184 187 186 184 186 186 183 182 188 197 201 199 201 206 208 209 210 211 213 219 219 216 217 213 210 219 227 238 251 258 260 259 256 258 263 267 272 274 271 271 272 269 275 288 294 320 344 333 327 334 334 331 337 342 341 340 342 342 342 343 347 347
154 152 151 152 157 162 163 162 162 162 163 165 166 168 171 173 175 177 176 176 177 179 180 183 187 187 186 186 185 182 183 188 196 202 201 201 204 207 209 211 212 212 216 219 220 221 228 241 248 248 249 253 255 257 258 259 263 269 272 272 270 269 270 267 261 268 277 284 319 335 323 321 328 328 329 335 338 337 338 341 341 340 342 346 346
154 152 150 150 156 162 165 165 165 165 167 169 171 174 176 178 179 181 182 183 183 181 181 185 189 189 187 186 185 184 185 191 200 207 207 205 205 208 210 211 211 211 213 216 217 218 225 235 244 249 249 249 252 258 260 262 265 268 268 266 264 267 274 272 272 282 285 288 312 317 310 314 322 324 329 335 334 334 337 340 339 338 340 344 345
156 158 156 155 159 162 163 165 167 168 169 170 172 176 179 180 183 184 186 188 189 188 187 189 191 191 189 190 191 191 193 197 203 209 210 207 207 209 211 211 209 209 212 213 211 215 227 231 233 238 240 243 248 254 257 260 265 267 267 267 271 280 282 277 279 288 288 288 299 303 303 312 319 324 330 331 330 332 334 335 335 336 339 342 342
160 163 166 166 165 163 161 162 166 167 168 171 172 173 175 180 184 187 189 190 191 192 192 193 193 192 192 192 195 198 200 202 203 205 207 206 202 199 204 208 205 203 207 208 205 208 220 227 230 236 242 248 252 255 260 265 268 270 271 271 272 273 273 273 275 277 279 284 291 295 305 315 319 325 330 328 325 326 326 329 335 336 337 339 339
166 166 167 166 163 163 163 165 168 168 169 172 173 170 171 175 177 181 188 191 190 190 193 195 194 191 189 194 199 201 201 201 199 200 202 200 193 189 196 205 201 195 198 201 202 209 219 230 240 247 250 256 259 260 264 267 267 265 265 266 267 264 262 264 267 266 268 278 284 292 308 320 324 327 325 320 315 314 317 328 337 336 335 337 337
172 165 161 159 160 164 166 167 169 170 169 171 172 170 173 175 171 167 172 179 184 190 196 199 196 191 192 199 202 199 197 194 193 198 200 194 188 187 191 196 194 191 193 196 199 208 219 231 244 249 250 254 257 259 262 263 261 259 258 260 266 268 267 269 269 266 268 274 278 294 322 327 325 322 315 309 308 311 320 333 336 333 333 335 335
175 163 159 161 163 166 167 167 168 170 170 172 173 173 174 175 170 164 162 167 177 188 194 194 192 194 201 207 198 190 193 193 195 200 198 189 188 189 186 183 187 193 197 201 207 214 222 231 241 248 252 256 257 259 261 259 254 252 254 260 269 274 276 278 274 269 274 277 278 311 326 317 311 307 302 303 311 321 329 333 332 332 335 334 331
170 162 163 166 165 166 168 168 168 169 170 173 176 174 170 170 172 173 171 170 174 182 188 190 190 196 205 209 196 185 192 194 193 195 193 187 189 192 189 185 190 197 203 210 215 221 227 234 241 247 254 259 260 263 266 263 257 255 258 262 267 269 270 273 273 271 273 273 282 319 317 305 298 296 296 303 317 327 328 328 331 336 336 330 326
165 163 164 163 163 166 169 170 170 169 170 173 175 173 170 169 173 177 177 177 179 183 189 192 193 196 205 210 203 188 187 189 188 188 190 190 191 192 193 195 199 206 213 219 223 225 229 234 240 246 252 256 259 263 267 266 258 256 257 257 259 262 265 273 281 282 274 270 296 316 309 296 289 290 295 308 324 324 322 326 334 336 331 326 324
163 166 164 163 164 167 169 172 172 171 171 171 173 174 176 177 177 177 178 181 183 185 188 191 193 194 199 204 202 192 184 185 187 189 191 193 194 195 198 202 207 212 217 222 227 231 235 238 241 244 249 254 257 261 266 266 260 260 263 261 260 262 265 266 268 267 270 283 299 301 295 288 287 291 304 321 325 321 322 332 334 328 322 322 325
164 166 166 166 166 166 169 172 172 172 172 173 173 176 178 177 175 173 175 178 182 186 189 190 191 193 194 195 196 193 186 184 186 187 188 190 193 196 199 202 207 211 216 221 227 231 236 241 245 245 246 248 252 257 263 265 263 262 265 265 264 266 266 263 259 260 270 281 285 285 287 292 298 306 314 317 318 321 328 330 324 318 317 323 330
171 171 174 173 168 166 167 169 169 169 170 170 172 174 175 173 170 170 174 179 183 188 191 190 190 194 196 194 193 192 188 185 186 187 189 192 196 199 200 201 204 208 214 220 225 229 233 240 244 245 244 244 246 252 257 259 259 260 262 264 267 268 267 266 266 269 274 277 279 283 291 297 302 306 308 310 315 321 322 318 314 313 318 324 327
172 174 178 175 168 165 165 167 168 168 169 169 171 173 175 175 175 178 184 189 185 184 188 194 195 196 196 196 195 194 191 191 193 194 195 198 201 203 205 206 208 212 217 222 228 234 237 239 239 239 240 242 245 249 253 256 261 264 265 267 268 267 266 267 268 270 274 276 278 281 285 288 293 297 297 298 303 308 309 308 308 311 312 313 316
170 173 174 173 169 165 166 169 172 174 176 178 178 178 181 183 184 186 194 200 193 184 185 195 203 204 201 200 200 200 199 200 201 201 203 205 207 209 212 214 215 216 219 223 228 235 242 243 240 238 239 243 248 251 254 257 260 261 262 265 268 268 266 266 267 270 275 276 277 279 282 285 289 291 290 291 294 298 301 302 305 309 311 312 313
164 170 170 169 167 165 166 171 176 179 182 184 185 186 187 188 188 191 198 205 203 198 197 199 205 213 210 202 200 202 205 206 207 208 210 212 214 216 218 219 220 222 224 226 229 234 242 246 246 243 245 249 254 257 258 260 263 264 265 273 280 280 274 268 266 271 276 278 280 283 285 286 289 292 296 300 301 301 303 306 309 314 319 321 321
163 168 168 169 169 168 170 175 178 180 183 187 191 191 189 187 189 195 204 208 210 216 215 206 203 214 213 202 198 201 204 207 210 212 213 215 217 218 220 222 223 225 228 232 233 237 242 246 245 244 247 251 255 260 263 264 269 273 275 275 274 272 271 270 268 268 271 275 279 281 282 287 293 296 297 297 298 302 307 311 313 317 320 321 322
162 163 165 170 171 171 174 178 181 183 186 189 191 193 192 191 192 198 208 213 215 220 222 212 207 214 210 199 195 197 200 204 210 213 213 215 217 218 218 220 222 224 229 233 235 237 242 244 243 242 244 246 249 255 259 262 267 271 271 269 264 259 258 259 259 259 262 266 270 273 275 279 285 289 290 291 295 300 305 307 309 311 313 316 317
160 161 165 170 171 172 176 178 181 184 185 186 190 196 201 203 202 201 205 208 208 210 213 210 206 202 194 190 191 195 199 204 210 213 213 214 215 216 216 217 220 224 228 231 233 234 237 239 238 240 241 242 243 247 250 256 262 266 267 270 270 267 264 263 263 264 263 261 262 264 266 267 272 278 283 288 294 298 302 303 302 302 305 309 310
157 157 165 172 174 178 182 180 179 182 184 185 189 194 198 205 209 209 208 205 202 202 204 203 195 184 181 187 193 197 201 205 209 213 213 211 212 214 214 215 218 223 227 229 229 230 233 236 236 237 240 243 245 248 251 254 259 262 266 272 275 274 273 271 271 272 269 265 263 263 260 258 260 269 277 285 292 297 299 300 298 298 301 305 307
158 158 166 174 176 180 184 182 181 182 183 185 190 193 195 201 208 212 211 207 204 200 196 195 194 193 191 192 195 198 203 207 211 214 215 213 213 213 214 216 220 222 222 222 223 224 229 234 235 237 240 243 247 253 256 255 254 255 260 268 272 272 273 272 268 265 264 265 268 269 263 258 262 272 279 286 291 295 296 295 295 298 302 305 307
158 160 168 175 179 184 186 184 183 185 186 187 193 198 200 200 203 207 207 204 202 198 194 196 205 209 204 197 196 200 204 208 213 218 219 217 214 214 215 218 218 213 207 209 214 220 225 230 232 235 239 244 248 253 257 255 251 248 252 261 267 270 273 274 273 270 270 274 281 288 288 284 282 279 279 282 287 290 291 291 293 298 302 305 308
165 169 176 181 184 187 189 189 189 191 192 191 193 198 202 199 197 201 203 199 197 199 200 203 208 210 206 201 200 200 201 204 210 219 222 218 214 212 212 213 214 211 208 213 219 223 226 229 232 235 240 245 251 255 254 252 249 249 253 260 265 267 269 271 273 273 276 280 285 288 288 287 284 281 281 285 288 289 290 291 295 301 304 305 307
184 180 182 185 186 188 190 188 184 185 191 195 193 194 197 196 192 193 197 198 199 203 206 204 202 202 204 205 204 202 202 203 208 214 218 217 214 213 214 216 221 225 224 223 225 227 230 234 236 238 243 249 255 257 254 250 250 254 260 264 266 265 264 266 268 272 276 281 284 285 284 283 282 282 284 285 285 283 284 288 291 295 298 298 299
172 152 156 164 169 175 177 172 169 175 186 195 192 189 189 188 184 182 185 189 192 196 199 197 196 201 211 216 212 207 205 205 208 214 220 221 219 219 220 222 224 224 223 225 228 231 234 236 239 243 247 252 254 256 254 251 251 255 260 263 263 263 264 266 270 274 277 279 281 282 282 281 281 283 284 283 280 277 279 283 287 289 292 293 295